Retour au catalogue

THORAD AGENA D DEB

ActifPO
NORAD 4682·DEBRIS·🇺🇸 United States

Lancé Apr 8, 1970 depuis Vandenberg Space Force Base

Loading…

Prochains Passages (prochaines 24 heures)

TLE

FraisSource: Space-Track

Époque: Sep 14, 2026, 12:27 UTC

1 04682U 70025BF  26257.51922873  .00000146  00000-0  41367-3 0  9998
2 04682  99.7389 263.4585 0143549 304.4480 210.5359 13.24566084719910

Suivez THORAD AGENA D DEB en temps réel avec AllMySat

Download on the App Store